This is the latest recevied weather packets stored in our database for station/object KY4GW. If no packets are shown the sender has not sent any weather packets the latest 10 day(s).
| Time | Temp. | Humidity | Pressure | Rain* | Wind** | Luminosity | Snow |
|---|---|---|---|---|---|---|---|
| 1777914872 | 21.67° C | 56% | 1013.4 hPa | 0 mm | - | 871 W/m² | - |
| 1777914568 | 21.67° C | 59% | 1013.4 hPa | 0 mm | - | 878 W/m² | - |
| 1777913962 | 21.11° C | 57% | 1013.4 hPa | 0 mm | - | 878 W/m² | - |
| 1777913052 | 20.56° C | 60% | 1013.4 hPa | 0 mm | - | 833 W/m² | - |
| 1777912748 | 20° C | 62% | 1013.4 hPa | 0 mm | - | 986 W/m² | - |
| 1777912443 | 19.44° C | 63% | 1013.4 hPa | 0 mm | - | 882 W/m² | - |
| 1777912140 | 18.89° C | 64% | 1013.8 hPa | 0 mm | - | 870 W/m² | - |
| 1777911533 | 19.44° C | 67% | 1013.8 hPa | 0 mm | - | 325 W/m² | - |
| 1777910624 | 19.44° C | 65% | 1013.8 hPa | 0 mm | - | 895 W/m² | - |
| 1777910320 | 18.33° C | 69% | 1013.8 hPa | 0 mm | - | 839 W/m² | - |
| 1777909714 | 16.67° C | 74% | 1013.8 hPa | 0 mm | - | 938 W/m² | - |
| 1777909412 | 16.67° C | 73% | 1013.8 hPa | 0 mm | - | 253 W/m² | - |
| 1777909110 | 16.67° C | 76% | 1013.8 hPa | 0 mm | - | 267 W/m² | - |
| 1777908807 | 16.67° C | 76% | 1013.8 hPa | 0 mm | - | 767 W/m² | - |
| 1777908503 | 16.11° C | 77% | 1013.8 hPa | 0 mm | - | 846 W/m² | - |
| 1777908201 | 15.56° C | 77% | 1013.8 hPa | 0 mm | - | 877 W/m² | - |
| 1777907592 | 14.44° C | 85% | 1013.8 hPa | 0 mm | - | 717 W/m² | - |
| 1777907288 | 14.44° C | 85% | 1013.8 hPa | 0 mm | - | 286 W/m² | - |
| 1777906985 | 13.33° C | 86% | 1013.8 hPa | 0 mm | - | 217 W/m² | - |
| 1777906683 | 12.78° C | 87% | 1014.1 hPa | 0.25 mm | - | 623 W/m² | - |
| 1777906379 | 12.22° C | 88% | 1014.1 hPa | 0.25 mm | - | 495 W/m² | - |
| 1777906075 | 11.67° C | 89% | 1014.1 hPa | 0.25 mm | - | 179 W/m² | - |
| 1777905772 | 11.67° C | 91% | 1014.4 hPa | 0.25 mm | - | 123 W/m² | - |
| 1777905469 | 11.67° C | 91% | 1014.4 hPa | 0.25 mm | - | 118 W/m² | - |
| 1777905167 | 11.67° C | 90% | 1014.4 hPa | 0.25 mm | - | 82 W/m² | - |
* Rain latest hour (hover to see other rain measurements)
** Current wind speed in m/s (hover to see current wind gust speed)